SINAH 1

Last updated on Mon Oct 14 2024 00:02:24 GMT+0000 (Coordinated Universal Time)

1 28893U 05043D 24287.31857568 .00002076 00000+0 41268-3 0 9996 2 28893 98.2088 50.3967 0015363 37.1464 323.0798 14.63119868 11012
UTC large
Height (km)
Speed (km/s)
/
Latitude / Longitude
Inclination (degrees)
Orbital Period (minutes)
Azimuth
Elevation
Range (km)
Doppler Factor

Next 0 passes for location: London (51.5072 / 0.1276)

Sorry there are no passes over London.